TimeEST,TemperatureF,Dew PointF,Humidity,Sea Level PressureIn,VisibilityMPH,Wind Direction,Wind SpeedMPH,Gust SpeedMPH,PrecipitationIn,Events,Conditions,WindDirDegrees,DateUTC
12:53 AM,71.1,68.0,90,30.05,10.0,ESE,4.6,-,N/A,,Clear,110,2013-01-02 05:53:00
1:53 AM,72.0,69.1,91,30.05,10.0,SE,6.9,-,N/A,,Partly Cloudy,130,2013-01-02 06:53:00
2:53 AM,72.0,69.1,91,30.03,10.0,ESE,5.8,-,N/A,,Scattered Clouds,110,2013-01-02 07:53:00
3:53 AM,72.0,69.1,91,30.04,10.0,SE,4.6,-,N/A,,Scattered Clouds,130,2013-01-02 08:53:00
4:53 AM,73.0,69.1,87,30.04,10.0,SE,4.6,-,N/A,,Partly Cloudy,130,2013-01-02 09:53:00
5:53 AM,72.0,69.1,91,30.04,10.0,ESE,4.6,-,N/A,,Partly Cloudy,120,2013-01-02 10:53:00
6:53 AM,71.6,69.8,94,30.06,10.0,ESE,3.5,-,N/A,,Overcast,110,2013-01-02 11:53:00
7:53 AM,73.0,70.0,90,30.07,10.0,East,4.6,-,N/A,,Overcast,90,2013-01-02 12:53:00
8:53 AM,73.9,70.0,87,30.09,10.0,East,5.8,-,N/A,,Overcast,100,2013-01-02 13:53:00
9:53 AM,75.0,70.0,84,30.09,10.0,ESE,6.9,-,N/A,,Mostly Cloudy,120,2013-01-02 14:53:00
10:53 AM,77.0,71.1,82,30.09,10.0,ESE,8.1,-,N/A,,Clear,120,2013-01-02 15:53:00
11:53 AM,77.0,70.0,79,30.08,10.0,ESE,8.1,-,N/A,,Scattered Clouds,120,2013-01-02 16:53:00
12:53 PM,77.0,70.0,79,30.05,10.0,ESE,8.1,-,N/A,,Mostly Cloudy,120,2013-01-02 17:53:00
1:53 PM,78.1,71.1,79,30.03,10.0,SE,8.1,-,N/A,,Mostly Cloudy,130,2013-01-02 18:53:00
2:53 PM,75.9,71.1,85,30.02,10.0,SSE,4.6,-,N/A,,Overcast,160,2013-01-02 19:53:00
3:53 PM,75.9,71.1,85,30.02,10.0,Variable,3.5,-,N/A,,Mostly Cloudy,0,2013-01-02 20:53:00
4:03 PM,77.0,71.6,83,30.02,10.0,ESE,3.5,-,N/A,,Mostly Cloudy,110,2013-01-02 21:03:00
4:32 PM,75.2,69.8,83,30.02,10.0,ESE,4.6,-,N/A,,Mostly Cloudy,120,2013-01-02 21:32:00
4:53 PM,75.9,71.1,85,30.02,10.0,ESE,4.6,-,N/A,,Mostly Cloudy,120,2013-01-02 21:53:00
5:53 PM,75.0,69.1,82,30.03,10.0,East,3.5,-,0.00,,Overcast,100,2013-01-02 22:53:00
6:53 PM,75.0,69.1,82,30.04,10.0,ENE,3.5,-,N/A,,Overcast,70,2013-01-02 23:53:00
7:53 PM,73.9,68.0,82,30.05,10.0,ENE,3.5,-,N/A,,Clear,70,2013-01-03 00:53:00
8:53 PM,73.9,69.1,85,30.06,10.0,NE,3.5,-,N/A,,Partly Cloudy,50,2013-01-03 01:53:00
9:53 PM,73.0,70.0,90,30.07,10.0,East,3.5,-,N/A,,Clear,80,2013-01-03 02:53:00
10:53 PM,73.0,71.1,93,30.06,10.0,East,5.8,-,N/A,,Clear,90,2013-01-03 03:53:00
11:53 PM,73.4,69.8,88,30.05,10.0,ESE,6.9,-,N/A,,Clear,110,2013-01-03 04:53:00